THOR ABLESTAR DEB, 246

Orbit data source: Space-Track

THOR ABLESTAR DEB, 246 is space debris in LEO originally from a launch on Thu, 29 Jun 1961 UTC launched from the Air Force Eastern Test Range (AFETR). Debris objects in space refer to the collection of defunct objects orbiting the Earth. Examples of debris include non-operational satellites, rocket bodies, and fragments generated from explosions, collisions, or faulty payload assembly.

Loading next visibility...
Identifier
246, 1961-015CB
Orbit
LEO
Country
Flag of USUS
Related business
Manufacturer
Unknown
Mission
Spacecraft
Bus & Motor
Unknown
Mass
Unknown
Launch date (UTC)
1961-06-29 (64 years ago)
Launch vehicle
Unknown
Launch site
Air Force Eastern Test Range (AFETR)
Object type
Payload
Rocket body
Debris
Shape & HBR
Unknown
Radar Cross Section
Medium (>0.1 m² and <1 m²)

Expand to show TLE details & history
Last TLE update: 1 day ago

TLE from 1 day ago
0 THOR ABLESTAR DEB
1 00246U 61015CB  25258.05240144 -.00000019  00000-0  48324-4 0  9993
2 00246  66.8687 136.5717 0069299 322.5910  37.0353 13.86109004585733
Epoch: 2025-09-15T01:15Z
TLE epoch observation values (Epoch: 2025-09-15T01:15:27.484Z)
Latitude
-0°
Longitude
123.44459°
Altitude
904.003 km
Speed
7.421 km/s
True Right ascension
09h 06m 17s
True Declination
0° 00' 00"
Sunlit
Object was in daylight at epoch
Visualization orbit readout
Latitude
Unknown
Longitude
Unknown
Altitude
Unknown
Speed
Unknown
Apparent Right ascension
Unknown
Apparent Declination
Unknown
Sunlit
N/A
Visualization observer readout
Local Sidereal Time
20:02:25
Azimuth
Unknown
Elevation
Unknown
Doppler factor
Unknown
Orbital elements
Apogee altitude
991.406 km
Perigee altitude
889.969 km
Semi-major axis
7,318.825 km
Eccentricity
0.00693
Inclination
66.8687°
RAAN
136.5717°
Arg. of periapsis
322.591°
True anomaly
37.51692°
Mean anomaly
37.0353°
Eccentric anomaly
37.27578°
Mean motion
3.46642 °/min
Orbital period
103.85 mins
BSTAR
0.000048324
Loading maneuver chart data...
Computing Atmospheric mass density...

Documentation

Showing up to 5 results
|